Location: Chittendens Corners
(41.2320°N, 81.4940°W)
Time: 07:25:06
(UTC+00:00)

Cosmos 1812 Rocket - Pass Details

Date: 29 October 2020
Orbit: 605 x 633 km, 82.5° (Epoch: 28 November)

Event Time Altitude Azimuth Distance (km) Brightness Sun altitude
Rises 23:47:42 0° 176° (S) 2,890 7.0 -16.2°
Reaches altitude 10° 23:49:57 10° 172° (S) 1,984 6.1 -16.6°
Maximum altitude 23:54:14 57° 94° (E) 733 3.5 -17.4°
Drops below altitude 10° 23:58:32 10° 16° (NNE) 1,982 6.0 -18.2°
Sets 00:00:47 0° 13° (NNE) 2,887 6.8 -18.6°
